Tracking 29781 objects as of 16-Oct-2024
HD Live streaming from Space Station
objects crossing your sky now

STARLINK-30929

Track STARLINK-30929 now!
10-day predictions
STARLINK-30929 is classified as:


NORAD ID: 58386
Int'l Code: 2023-178N
Perigee: 481.9 km
Apogee: 482.8 km
Inclination: 53.2 °
Period: 94.1 minutes
Semi major axis: 6853 km
RCS: Unknown
Launch date: November 20, 2023
Source: United States (US)
Launch site: AIR FORCE WESTERN TEST RANGE (AFWTR)
Your satellite tracking list
Your tracking list is empty




NASA's NSSDC Master Catalog

Two Line Element Set (TLE):
1 58386U 23178N   24289.77024508  .00003807  00000-0  14059-3 0  9999
2 58386  53.1601 209.8774 0000604 126.0401 234.0656 15.30198633 51785
Source of the keplerian elements: AFSPC